Hourly Weather Holmistyy

Today, 12 April, Monday

Time Temperature Precipitation Wind Pressure Humidity
00:00 +8°C° 0.1 mm 3 mps 749 mmHg 92%
01:00 +7°C° 0.1 mm 2 mps 749 mmHg 94%
02:00 +7°C° 0 mm 2 mps 749 mmHg 95%
03:00 +7°C° 0 mm 2 mps 750 mmHg 96%
04:00 +7°C° 0 mm 1 mps 750 mmHg 98%
05:00 +6°C° 0 mm 2 mps 750 mmHg 95%
06:00 +6°C° 0 mm 2 mps 751 mmHg 93%
07:00 +6°C° 0 mm 2 mps 751 mmHg 91%
08:00 +7°C° 0 mm 2 mps 751 mmHg 83%
09:00 +8°C° 0 mm 2 mps 752 mmHg 75%
10:00 +9°C° 0 mm 2 mps 752 mmHg 67%
11:00 +9°C° 0 mm 3 mps 752 mmHg 65%
12:00 +10°C° 0 mm 3 mps 753 mmHg 62%
13:00 +10°C° 0 mm 3 mps 753 mmHg 60%
14:00 +10°C° 0 mm 4 mps 753 mmHg 60%
15:00 +10°C° 0 mm 4 mps 754 mmHg 61%
16:00 +8°C° 0 mm 4 mps 754 mmHg 61%
17:00 +7°C° 0 mm 3 mps 754 mmHg 69%
18:00 +6°C° 0 mm 2 mps 755 mmHg 76%
19:00 +4°C° 0 mm 2 mps 755 mmHg 83%
20:00 +4°C° 0 mm 1 mps 755 mmHg 85%
21:00 +4°C° 0 mm 1 mps 756 mmHg 86%
22:00 +3°C° 0 mm 1 mps 756 mmHg 87%
23:00 +3°C° 0 mm 1 mps 756 mmHg 86%

Tomorrow, 13 April, Tuesday

Time Temperature Precipitation Wind Pressure Humidity
00:00 +2°C° 0 mm 1 mps 756 mmHg 86%
01:00 +2°C° 0 mm 1 mps 756 mmHg 85%
02:00 +2°C° 0 mm 1 mps 756 mmHg 84%
03:00 +2°C° 0 mm 1 mps 756 mmHg 82%
04:00 +1°C° 0 mm 1 mps 757 mmHg 81%
05:00 +2°C° 0 mm 1 mps 757 mmHg 76%
06:00 +3°C° 0 mm 1 mps 757 mmHg 71%
07:00 +4°C° 0 mm 1 mps 757 mmHg 67%
08:00 +6°C° 0 mm 1 mps 756 mmHg 59%
09:00 +8°C° 0 mm 1 mps 756 mmHg 51%
10:00 +9°C° 0 mm 2 mps 756 mmHg 43%
11:00 +10°C° 0 mm 2 mps 756 mmHg 40%
12:00 +12°C° 0 mm 2 mps 755 mmHg 37%
13:00 +13°C° 0 mm 2 mps 755 mmHg 34%
14:00 +14°C° 0 mm 2 mps 754 mmHg 35%
15:00 +14°C° 0 mm 2 mps 754 mmHg 37%
16:00 +14°C° 0 mm 2 mps 753 mmHg 38%
17:00 +13°C° 0 mm 2 mps 753 mmHg 48%
18:00 +10°C° 0 mm 2 mps 753 mmHg 58%
19:00 +8°C° 0 mm 2 mps 752 mmHg 68%
20:00 +8°C° 0 mm 2 mps 752 mmHg 76%
21:00 +8°C° 0 mm 2 mps 752 mmHg 84%
22:00 +7°C° 0 mm 2 mps 751 mmHg 92%
23:00 +7°C° 0 mm 2 mps 751 mmHg 92%

Day after tomorrow, 14 April, Wednesday

Time Temperature Precipitation Wind Pressure Humidity
00:00 +8°C° 0 mm 3 mps 751 mmHg 92%
01:00 +8°C° 0 mm 3 mps 750 mmHg 92%
02:00 +8°C° 0 mm 3 mps 750 mmHg 92%
03:00 +7°C° 0 mm 3 mps 750 mmHg 92%
04:00 +7°C° 0 mm 3 mps 750 mmHg 92%
05:00 +8°C° 0 mm 3 mps 750 mmHg 90%
06:00 +8°C° 0 mm 3 mps 750 mmHg 89%
07:00 +9°C° 0 mm 3 mps 750 mmHg 88%
08:00 +10°C° 0 mm 3 mps 750 mmHg 81%
09:00 +12°C° 0 mm 3 mps 749 mmHg 74%
10:00 +14°C° 0 mm 3 mps 749 mmHg 67%
11:00 +15°C° 0 mm 4 mps 749 mmHg 63%
12:00 +17°C° 0 mm 4 mps 749 mmHg 59%
13:00 +18°C° 0 mm 4 mps 748 mmHg 55%
14:00 +18°C° 0 mm 4 mps 748 mmHg 54%
15:00 +18°C° 0 mm 4 mps 748 mmHg 53%
16:00 +18°C° 0 mm 4 mps 748 mmHg 52%
17:00 +16°C° 0 mm 3 mps 747 mmHg 60%
18:00 +14°C° 0 mm 3 mps 747 mmHg 68%
19:00 +13°C° 0 mm 2 mps 747 mmHg 76%
20:00 +12°C° 0 mm 2 mps 747 mmHg 80%
21:00 +10°C° 0 mm 2 mps 747 mmHg 84%
22:00 +9°C° 0 mm 2 mps 747 mmHg 88%
23:00 +9°C° 0 mm 2 mps 747 mmHg 89%

15 April, Thursday

Time Temperature Precipitation Wind Pressure Humidity
00:00 +9°C° 0 mm 2 mps 746 mmHg 90%
01:00 +8°C° 0 mm 2 mps 746 mmHg 90%
02:00 +8°C° 0 mm 2 mps 746 mmHg 91%
03:00 +7°C° 0 mm 2 mps 746 mmHg 91%
04:00 +7°C° 0 mm 2 mps 746 mmHg 91%
05:00 +8°C° 0 mm 2 mps 745 mmHg 88%
06:00 +9°C° 0 mm 2 mps 745 mmHg 85%
07:00 +10°C° 0 mm 2 mps 745 mmHg 82%
08:00 +12°C° 0 mm 3 mps 745 mmHg 74%
09:00 +13°C° 0 mm 3 mps 744 mmHg 66%
10:00 +15°C° 0 mm 4 mps 744 mmHg 58%
11:00 +17°C° 0 mm 4 mps 743 mmHg 55%
12:00 +18°C° 0 mm 4 mps 743 mmHg 52%
13:00 +19°C° 0 mm 4 mps 743 mmHg 48%
14:00 +19°C° 0 mm 4 mps 742 mmHg 45%
15:00 +19°C° 0 mm 4 mps 742 mmHg 41%
16:00 +19°C° 0 mm 4 mps 741 mmHg 38%
17:00 +17°C° 0 mm 3 mps 741 mmHg 43%
18:00 +14°C° 0 mm 3 mps 741 mmHg 49%
19:00 +13°C° 0 mm 2 mps 741 mmHg 54%
20:00 +12°C° 0 mm 2 mps 740 mmHg 57%
21:00 +10°C° 0 mm 2 mps 740 mmHg 60%
22:00 +9°C° 0 mm 2 mps 740 mmHg 62%
23:00 +8°C° 0 mm 2 mps 740 mmHg 65%

16 April, Friday

Time Temperature Precipitation Wind Pressure Humidity
00:00 +8°C° 0 mm 2 mps 739 mmHg 68%
01:00 +7°C° 0 mm 2 mps 739 mmHg 70%
02:00 +7°C° 0 mm 2 mps 739 mmHg 72%
03:00 +7°C° 0 mm 2 mps 739 mmHg 73%
04:00 +6°C° 0 mm 2 mps 738 mmHg 74%
05:00 +7°C° 0 mm 2 mps 738 mmHg 73%
06:00 +8°C° 0 mm 2 mps 738 mmHg 72%
07:00 +10°C° 0 mm 1 mps 738 mmHg 71%
08:00 +10°C° 0.1 mm 1 mps 738 mmHg 73%
09:00 +10°C° 0.1 mm 1 mps 738 mmHg 75%
10:00 +11°C° 0.1 mm 1 mps 738 mmHg 78%
11:00 +9°C° 0.1 mm 2 mps 737 mmHg 78%
12:00 +9°C° 0.1 mm 2 mps 737 mmHg 79%
13:00 +9°C° 0.1 mm 3 mps 737 mmHg 79%
14:00 +8°C° 0.6 mm 3 mps 737 mmHg 83%
15:00 +5°C° 0.6 mm 3 mps 737 mmHg 88%
16:00 +4°C° 0.6 mm 3 mps 737 mmHg 92%
17:00 +3°C° 0.6 mm 3 mps 736 mmHg 93%
18:00 +3°C° 0.6 mm 3 mps 736 mmHg 93%
19:00 +2°C° 0.6 mm 3 mps 736 mmHg 94%
20:00 +1°C° 0.4 mm 3 mps 736 mmHg 95%
21:00 0°C° 0.4 mm 3 mps 736 mmHg 95%
22:00 -2°C° 0.4 mm 4 mps 736 mmHg 96%
23:00 -2°C° 0.7 mm 4 mps 736 mmHg 95%

17 April, Saturday

Time Temperature Precipitation Wind Pressure Humidity
00:00 -3°C° 0.7 mm 4 mps 735 mmHg 95%
01:00 -4°C° 0.7 mm 4 mps 735 mmHg 94%
02:00 -4°C° 0.2 mm 4 mps 735 mmHg 93%
03:00 -5°C° 0.2 mm 4 mps 735 mmHg 93%
04:00 -7°C° 0.2 mm 4 mps 735 mmHg 93%
05:00 -7°C° 0.2 mm 4 mps 735 mmHg 91%
06:00 -7°C° 0.2 mm 5 mps 736 mmHg 89%
07:00 -8°C° 0.2 mm 5 mps 736 mmHg 87%
08:00 -7°C° 0.2 mm 5 mps 736 mmHg 85%
09:00 -7°C° 0.2 mm 5 mps 736 mmHg 82%
10:00 -7°C° 0.2 mm 5 mps 736 mmHg 80%
11:00 -6°C° 0.1 mm 5 mps 736 mmHg 73%
12:00 -5°C° 0.1 mm 5 mps 736 mmHg 65%
13:00 -5°C° 0.1 mm 5 mps 736 mmHg 58%
14:00 -5°C° 0 mm 5 mps 736 mmHg 57%
15:00 -4°C° 0 mm 5 mps 736 mmHg 57%
16:00 -4°C° 0 mm 5 mps 737 mmHg 56%
17:00 -5°C° 0.1 mm 5 mps 737 mmHg 61%
18:00 -5°C° 0.1 mm 4 mps 737 mmHg 65%
19:00 -7°C° 0.1 mm 4 mps 737 mmHg 69%
20:00 -8°C° 0 mm 4 mps 738 mmHg 71%
21:00 -8°C° 0 mm 4 mps 738 mmHg 73%
22:00 -8°C° 0 mm 3 mps 738 mmHg 75%
23:00 -9°C° 0 mm 4 mps 738 mmHg 77%
Show more